Terminal Aerodrome Forecast
Issued by NWS Portland, OR

Home | Current Version | Previous Version | Text Only | Print | Product List | Glossary On
Versions: 1 2 3 4 5 6 7 8 9 10 11 12 13 14 15 16 17 18 19 20 21 22 23 24 25 26 27 28 29 30 31 32 33 34 35 36 37 38
000
FTUS46 KPQR 251734
TAFSLE
TAF
KSLE 251734Z 2518/2618 18006KT P6SM BKN070
     FM260200 19005KT P6SM OVC015
     FM260800 VRB02KT P6SM BKN008=

USA.gov is the U.S. government's official web portal to all federal, state and local government web resources and services.